Fryeburg, ME

9:22 PM EDT on April 28, 2017 (GMT -0400)
Eastern Slopes Regional

Weather History for KIZG - November, 2012

Change the Weather History Date:

Sunday, November 11, 2012

  Actual Average Record
Temperature  
Mean Temperature 41 °F -  
Max Temperature 54 °F 43 °F 73 °F (2002)
Min Temperature 28 °F 25 °F 14 °F (2007)
Degree Days  
Heating Degree Days 24    
Moisture  
Dew Point 31 °F    
Average Humidity 82    
Maximum Humidity 100    
Minimum Humidity 57    
Precipitation  
Precipitation 0.00 in - - ()
Sea Level Pressure  
Sea Level Pressure 30.46 in    
Wind  
Wind Speed 0 mph (WSW)    
Max Wind Speed 5 mph    
Max Gust Speed -    
Visibility 9 miles    
Events      
Averages and records for this station are not official NWS values.
T = Trace of Precipitation, MM = Missing Value Source: NWS Daily Summary

Daily Weather History Graph

Daily Weather History Graph

Search for Another Location

Airport or City:

Trip Planner

Search our weather history database for the weather conditions in past years. The results will help you decide how hot, cold, wet, or windy it might be!

Date:

Astronomy

Nov. 11, 2012 Rise Set
Actual Time 6:34 AM EST 4:21 PM EST
Civil Twilight 6:03 AM EST 4:52 PM EST
Nautical Twilight 5:28 AM EST 5:26 PM EST
Astronomical Twilight 4:54 AM EST 6:00 PM EST
Moon 3:39 AM EST (11/11) 2:46 PM EST (11/11)
Length of Visible Light 10h 48m
Length of Day
9h 47m
Waning Crescent, 7% of the Moon is Illuminated
Nov 11
Waning Crescent
Nov 13
New
Nov 20
First Quarter
Nov 28
Full
Dec 6
Last Quarter

Hourly Weather History & Observations

Time (EST) Temp. Windchill Dew Point Humidity Pressure Visibility Wind Dir Wind Speed Gust Speed Precip Events Conditions
12:54 AM 30.0 °F - 25.0 °F 82% 30.48 in 10.0 mi Calm Calm - N/A   Overcast
1:54 AM 28.0 °F - 26.1 °F 92% 30.49 in 10.0 mi Calm Calm - N/A   Overcast
2:54 AM 28.9 °F - 25.0 °F 85% 30.48 in 10.0 mi Calm Calm - N/A   Mostly Cloudy
3:25 AM 30.2 °F - 26.6 °F 86% 30.47 in 10.0 mi Calm Calm - N/A   Overcast
3:54 AM 30.9 °F - 27.0 °F 85% 30.50 in 10.0 mi Calm Calm - N/A   Overcast
4:15 AM 32.0 °F - 26.6 °F 80% 30.48 in 10.0 mi Calm Calm - N/A   Overcast
4:54 AM 32.0 °F - 28.0 °F 85% 30.50 in 10.0 mi Calm Calm - N/A   Overcast
5:54 AM 33.1 °F - 28.0 °F 82% 30.50 in 10.0 mi Calm Calm - N/A   Overcast
6:28 AM 33.8 °F - 28.4 °F 81% 30.48 in 10.0 mi Calm Calm - N/A   Overcast
6:54 AM 34.0 °F - 28.9 °F 82% 30.50 in 10.0 mi Calm Calm - N/A   Overcast
7:21 AM 33.8 °F - 28.4 °F 81% 30.47 in 10.0 mi Calm Calm - N/A   Overcast
7:54 AM 36.0 °F - 28.9 °F 76% 30.50 in 10.0 mi Calm Calm - N/A   Partly Cloudy
9:54 AM 41.0 °F - 30.0 °F 65% 30.49 in 10.0 mi Calm Calm - N/A   Overcast
10:54 AM 43.0 °F - 30.9 °F 62% 30.48 in 10.0 mi Calm Calm - N/A   Overcast
1:54 PM 54.0 °F - 39.0 °F 57% 30.38 in 10.0 mi South 4.6 mph - N/A   Clear
2:54 PM 54.0 °F - 39.9 °F 59% 30.40 in 10.0 mi Calm Calm - N/A   Clear
3:54 PM 54.0 °F - 39.9 °F 59% 30.40 in 10.0 mi South 3.5 mph - N/A   Clear
4:54 PM 46.0 °F - 39.9 °F 79% 30.43 in 10.0 mi Calm Calm - N/A   Clear
5:54 PM 39.9 °F - 37.0 °F 89% 30.44 in 10.0 mi Calm Calm - N/A   Clear
6:54 PM 37.9 °F 35.5 °F 36.0 °F 93% 30.45 in 10.0 mi WNW 3.5 mph - N/A   Clear
7:54 PM 35.1 °F - 35.1 °F 100% 30.45 in 8.0 mi Calm Calm - N/A   Clear
8:54 PM 34.0 °F 31.0 °F 33.1 °F 96% 30.45 in 6.0 mi WNW 3.5 mph - N/A   Clear
9:54 PM 34.0 °F - 33.1 °F 96% 30.44 in 5.0 mi Calm Calm - N/A   Clear
10:54 PM 30.9 °F - 30.0 °F 96% 30.43 in 5.0 mi Calm Calm - N/A   Clear
11:54 PM 30.9 °F - 30.0 °F 96% 30.44 in 4.0 mi Calm Calm - N/A   Clear